Home   Weather   Goch   Past weeks

Flag for Germany Past Weather in Goch, North Rhine-Westphalia, Germany — Yesterday and Last 2 Weeks

Now
46 °F

Clear.


Feels Like: 42 °F
Forecast: 42 / 48 °F
Wind: 8 mph from South

Location: Niederrhein

Current Time: Dec 8, 2016 at 7:05:14 pm

Latest Report: Dec 8, 2016 at 6:20 pm


Visibility: 10 mi

Pressure: 30.30 "Hg

Humidity: 71%

Dew Point: 37 °F

Location of GochLocation

Past Weather in Goch — Graph

°F

Goch Temperature Yesterday

Maximum temperature yesterday: 46 °F (at 1:50 pm)
Minimum temperature yesterday: 34 °F (at 4:50 am)
Average temperature yesterday: 41 °F

High & Low Weather Summary for the Past Weeks

 TemperatureHumidityPressure
High52 °F (Nov 23, 5:20 pm)100% (Nov 23, 6:50 pm)30.60 "Hg (Nov 23, 6:50 pm)
Low21 °F (Nov 30, 4:50 am)50% (Nov 25, 2:20 pm)30.07 "Hg (Nov 23, 5:20 pm)
Average37 °F89%30.31 "Hg
* Reported Nov 23 5:20 pm — Dec 8 5:50 pm, Goch, Weather by CustomWeather, © 2016

Note: Actual official high and low records may vary slightly from our data, if they occured in-between our weather recording intervals... More about our weather records

Advertising

Goch Weather History for the Previous 24 Hours

Scroll right to see more
 ConditionsComfort  
Time TempWeatherWind HumidityBarometerVisibility
5:50 pm
Thu, Dec 8
45 °FClear.8 mph71%30.30 "Hg10 mi
5:20 pm46 °FSunny.10 mph66%30.30 "Hg10 mi
4:50 pm46 °FSunny.10 mph66%30.30 "Hg10 mi
4:20 pm46 °FPassing clouds.10 mph66%30.30 "HgN/A
3:50 pm48 °FSunny.12 mph62%30.30 "Hg10 mi
3:20 pm48 °FPassing clouds.8 mph66%30.33 "HgN/A
2:50 pm48 °FSunny.10 mph66%30.33 "Hg10 mi
2:20 pm48 °FPassing clouds.12 mph66%30.33 "HgN/A
1:50 pm48 °FPassing clouds.9 mph62%30.33 "HgN/A
1:20 pm48 °FSunny.13 mph62%30.33 "Hg10 mi
12:50 pm48 °FPassing clouds.12 mph62%30.36 "HgN/A
12:20 pm46 °FSunny.10 mph66%30.36 "Hg10 mi
11:50 am46 °FPassing clouds.10 mph66%30.36 "HgN/A
11:20 am45 °FPassing clouds.10 mph66%30.36 "HgN/A
10:50 am45 °FSunny.9 mph66%30.39 "Hg10 mi
10:20 am45 °FSunny.9 mph66%30.39 "Hg10 mi
9:50 am45 °FPassing clouds.8 mph66%30.39 "HgN/A
9:20 am43 °FClear.8 mph71%30.39 "Hg10 mi
8:50 am43 °FClear.7 mph71%30.39 "Hg10 mi
8:20 am43 °FClear.7 mph76%30.39 "Hg10 mi
7:50 am43 °FClear.8 mph76%30.39 "Hg10 mi
7:20 am41 °FPassing clouds.6 mph81%30.39 "HgN/A
6:50 am41 °FClear.7 mph81%30.39 "Hg10 mi
6:20 am41 °FClear.6 mph81%30.39 "Hg10 mi
5:50 am41 °FClear.7 mph81%30.39 "Hg10 mi
5:20 am41 °FClear.7 mph81%30.39 "Hg10 mi
4:50 am41 °FClear.6 mph81%30.39 "Hg10 mi
11:50 pm
Wed, Dec 7
45 °FClear.9 mph76%30.42 "Hg10 mi
11:20 pm45 °FClear.8 mph76%30.42 "Hg10 mi
10:50 pm45 °FClear.8 mph76%30.42 "Hg10 mi
10:20 pm43 °FClear.8 mph81%30.42 "Hg10 mi
9:50 pm43 °FClear.7 mph81%30.42 "Hg10 mi
9:20 pm43 °FClear.7 mph87%30.42 "Hg10 mi
8:50 pm43 °FClear.6 mph87%30.42 "Hg10 mi
8:20 pm43 °FClear.7 mph87%30.42 "Hg10 mi
7:50 pm43 °FClear.6 mph87%30.42 "Hg10 mi
7:20 pm45 °FClear.7 mph81%30.39 "Hg10 mi
Weather by CustomWeather, © 2016

See weather overviewHow to use our weather pages